Temperature
16 17 17 18 18 17 17 16 16 15 14 14 13 12 12 12 11 11 10 10 10 9 9 8 8 8 7 7 7 6 6 6 6 5 5 6 6 7 7 7 8 8 8
17 17 17 17 17 16 16 16 15 15 14 13 12 12 11 11 11 10 10 10 10 9 9 8 8 8 7 7 6 6 6 6 5 5 4 4 5 6 7 7 8 8 8
16 16 16 16 16 16 15 15 15 14 13 13 12 11 11 11 11 10 10 10 9 9 8 8 8 7 7 7 6 6 6 5 5 5 4 3 4 4 5 5 5 5 5
15 15 15 15 15 14 14 14 14 13 13 12 12 11 11 11 10 10 9 9 9 8 8 8 7 7 7 6 6 6 6 5 5 4 4 4 4 3 3 4 4 4 4
14 14 14 14 14 13 13 13 13 13 12 12 12 11 11 11 10 10 10 9 9 8 8 8 7 7 7 6 6 6 5 5 5 4 4 4 3 3 1 1 2 3 4
14 14 13 13 13 13 13 12 12 12 12 11 11 11 11 10 10 10 10 9 9 9 8 8 7 7 7 6 6 6 5 5 4 4 3 3 3 2 2 1 1 2 3
13 13 13 13 12 12 12 12 12 11 11 11 10 10 10 10 9 9 9 9 9 8 8 7 7 7 7 6 6 5 5 4 4 4 3 3 3 3 2 1 1 1 2
13 13 12 12 12 11 11 11 11 11 10 10 10 9 9 9 9 8 8 8 8 8 7 7 7 7 6 6 6 5 5 4 4 3 3 3 3 2 2 2 1 -0 -0
13 12 12 11 11 11 11 10 10 10 10 9 9 9 8 8 8 8 7 7 7 7 7 7 6 6 6 6 5 5 5 4 4 3 3 3 2 2 2 1 1 -1 -2
12 12 11 11 11 10 10 10 9 9 9 8 8 8 7 7 7 7 7 6 6 6 6 6 6 6 6 5 5 4 4 4 3 3 3 2 2 2 1 1 0 -0 -1
12 11 11 11 10 10 9 9 9 8 8 7 7 7 7 6 6 6 6 6 6 6 6 6 5 5 5 5 4 4 4 3 3 3 2 2 2 1 1 0 -0 -1 -2
11 11 10 10 10 9 9 8 8 7 7 6 6 6 6 6 6 6 6 6 5 5 5 5 5 5 4 4 4 3 3 3 2 2 2 1 1 1 0 -0 -1 -1 -2
10 10 10 10 9 9 8 7 7 6 6 6 6 5 5 5 5 5 5 5 5 5 5 4 4 4 3 3 3 2 2 2 1 1 1 1 0 0 -0 -1 -1 -1 -2
10 10 9 9 8 8 7 6 6 6 5 5 5 5 5 5 5 5 5 4 4 4 4 4 3 3 2 2 2 1 1 1 1 0 0 0 -0 -0 -1 -1 -1 -2 -2
9 9 8 8 7 7 6 6 5 5 5 4 4 4 4 4 4 4 4 4 3 3 3 3 2 2 1 1 1 0 0 -0 -0 -0 -1 -1 -1 -1 -1 -2 -2 -2 -3
8 8 7 7 6 6 5 5 4 4 4 4 4 4 4 3 3 3 3 3 3 2 2 2 1 1 0 0 -0 -1 -1 -1 -1 -1 -1 -1 -2 -2 -2 -2 -3 -3 -3
7 7 6 6 5 5 4 4 4 3 3 3 3 3 3 3 3 2 2 2 1 1 1 1 0 -0 -0 -1 -1 -2 -2 -2 -2 -2 -2 -2 -2 -2 -2 -3 -3 -3 -3
6 6 5 5 4 4 3 3 3 3 3 3 3 2 2 2 2 1 1 1 0 -0 -0 -1 -1 -1 -1 -2 -2 -3 -3 -3 -3 -3 -3 -3 -3 -3 -3 -3 -3 -3 -3
5 5 4 4 4 3 3 3 3 3 2 2 2 2 1 1 1 0 0 -0 -1 -1 -2 -2 -2 -2 -2 -2 -3 -3 -3 -3 -3 -3 -3 -3 -3 -3 -3 -4 -4 -4 -4
4 4 4 3 3 3 3 2 2 2 2 1 1 1 0 -0 -0 -1 -1 -1 -2 -2 -3 -3 -3 -3 -3 -3 -3 -4 -4 -4 -4 -3 -3 -3 -3 -4 -4 -4 -4 -4 -4
4 3 3 3 3 2 2 2 2 1 1 1 0 0 -0 -1 -1 -1 -2 -2 -3 -3 -3 -4 -4 -4 -4 -4 -4 -4 -4 -4 -4 -4 -4 -3 -4 -4 -4 -4 -4 -4 -4
3 3 3 3 3 2 1 1 1 1 0 0 -0 -0 -1 -1 -2 -2 -2 -3 -4 -4 -5 -5 -5 -5 -5 -5 -4 -4 -4 -4 -4 -4 -4 -4 -4 -4 -4 -4 -4 -4 -4
3 2 2 2 2 2 1 1 0 -0 -0 -0 -0 -1 -1 -2 -2 -3 -3 -4 -4 -5 -6 -6 -6 -5 -5 -5 -4 -4 -4 -4 -4 -4 -4 -4 -4 -4 -4 -4 -4 -5 -5
2 2 2 1 1 1 1 0 -0 -1 -1 -1 -1 -2 -2 -2 -3 -4 -4 -5 -6 -6 -6 -6 -6 -6 -5 -5 -5 -4 -4 -4 -4 -4 -4 -4 -4 -4 -4 -5 -5 -5 -5
2 1 1 1 1 0 0 0 -1 -1 -2 -2 -2 -2 -3 -3 -4 -4 -5 -6 -6 -7 -6 -6 -6 -6 -5 -5 -5 -5 -4 -4 -4 -4 -4 -4 -4 -4 -5 -5 -5 -5 -6
1 1 1 0 0 0 -0 -0 -1 -2 -2 -3 -3 -3 -4 -4 -5 -6 -6 -6 -7 -6 -6 -6 -6 -6 -6 -5 -5 -5 -5 -5 -4 -4 -4 -5 -5 -5 -5 -5 -5 -6 -6
Wind_Speed
8 10 10 10 9 6 2 3 5 6 6 5 6 6 8 6 6 11 16 19 21 21 21 16 13 13 11 13 12 9 9 8 4 3 6 8 12 15 14 16 16 19 24
11 12 12 12 11 8 5 1 2 5 6 6 5 4 3 4 6 8 14 19 21 21 21 17 12 11 11 12 11 10 7 6 7 6 3 6 6 7 13 12 12 12 15
8 10 11 11 11 11 8 4 1 2 5 5 4 2 2 1 2 5 7 13 19 20 21 20 17 12 12 13 15 14 12 11 8 9 7 5 7 5 5 7 10 10 9
7 7 9 10 10 9 8 6 4 2 2 5 4 6 6 6 7 5 6 7 14 19 21 21 19 14 13 15 16 15 14 12 11 7 11 12 7 6 6 4 5 7 9
6 7 7 7 7 8 8 7 6 5 2 2 5 5 7 8 6 4 6 7 8 14 18 19 17 15 14 16 16 14 15 14 15 11 7 11 11 10 10 12 7 6 8
4 5 5 6 7 8 8 8 8 6 4 1 2 5 7 8 7 8 8 7 6 7 11 15 14 14 14 16 17 16 15 16 16 15 11 9 7 9 12 17 13 11 8
2 3 5 6 7 8 8 7 8 6 5 3 1 3 6 7 8 9 8 8 6 6 9 10 11 13 14 14 14 14 16 17 17 18 16 15 15 9 9 14 14 11 7
1 1 2 4 5 6 7 7 7 6 6 5 4 4 4 4 5 7 7 7 7 8 9 8 10 12 13 14 14 14 16 15 17 19 18 16 15 14 14 12 11 13 11
2 1 2 3 4 5 5 5 6 6 6 6 6 6 5 5 6 7 6 6 7 8 8 8 9 11 12 13 13 13 15 15 16 17 18 17 15 14 14 13 13 13 14
2 0 1 2 3 4 4 5 5 5 6 6 5 5 6 6 6 6 7 8 8 8 9 9 9 10 11 11 12 12 14 15 15 14 16 18 15 14 13 14 14 14 16
3 1 1 2 3 4 5 5 6 6 6 7 6 7 7 7 7 6 8 8 8 9 9 9 9 10 10 10 10 12 13 15 16 15 16 19 16 15 14 14 14 15 15
1 1 1 3 4 5 6 6 6 6 6 6 6 7 7 7 7 8 9 9 9 9 9 10 10 11 11 10 11 13 13 14 16 16 16 18 15 18 15 15 16 16 16
1 1 2 3 5 6 6 7 7 7 7 6 7 8 8 8 9 9 10 10 10 10 10 10 11 12 12 12 12 13 14 14 15 15 16 17 16 18 15 16 16 15 16
1 1 3 4 6 6 6 7 7 7 7 7 7 8 9 9 10 10 10 11 10 11 11 11 12 12 12 12 13 13 13 14 14 14 15 15 16 17 17 16 17 15 15
2 3 4 5 6 7 7 7 7 7 6 7 8 9 10 9 10 10 11 11 11 12 12 12 13 12 11 11 13 12 13 14 14 14 14 15 19 22 19 15 13 14 14
3 5 6 7 7 7 7 7 7 7 7 8 9 10 10 10 11 11 12 12 12 12 12 12 13 14 13 21 26 20 13 13 13 14 13 14 18 22 27 29 27 22 18
5 6 7 7 7 7 6 7 8 8 8 9 10 10 11 11 12 12 12 13 13 12 13 12 13 15 17 26 28 27 18 13 12 12 12 12 12 19 14 20 26 25 29
5 6 6 7 6 6 6 7 8 8 9 10 11 11 11 12 13 13 13 14 12 13 13 14 14 16 18 27 28 28 18 13 12 12 12 13 13 13 14 13 14 15 16
4 5 5 5 6 7 7 8 9 9 10 11 11 11 11 13 14 14 15 14 14 14 13 14 14 16 19 26 28 27 12 11 12 12 12 13 13 20 23 15 14 15 14
4 5 6 5 7 7 7 8 10 10 11 12 12 12 12 13 15 16 16 14 13 15 15 15 14 15 17 24 27 26 11 12 12 10 11 18 18 21 22 14 13 15 13
6 6 6 6 7 8 7 9 11 11 12 12 12 12 12 13 15 15 14 14 15 16 16 16 15 14 17 22 25 25 13 11 12 11 9 10 20 22 22 19 12 16 14
6 6 6 8 9 8 8 10 12 12 12 12 13 13 13 12 13 14 15 14 14 16 15 15 15 12 13 18 20 25 24 21 13 11 10 11 20 21 21 17 15 19 16
6 6 7 9 10 9 9 11 13 13 13 13 13 13 14 12 11 13 15 14 13 13 14 13 14 13 10 13 23 25 26 25 15 11 18 20 21 20 14 16 18 14 7
7 7 8 10 11 11 10 11 13 12 12 14 14 13 13 14 11 10 11 12 13 13 14 14 15 14 13 11 10 11 13 17 15 13 16 20 20 14 13 12 9 5 6
7 7 9 11 13 12 12 12 12 12 13 13 13 13 12 13 13 11 11 13 12 15 17 15 14 16 16 16 24 20 13 11 12 13 8 6 6 6 6 5 5 5 5
8 9 10 11 13 13 13 12 11 10 12 13 12 11 11 12 12 14 15 18 20 26 27 26 24 18 22 28 28 27 26 25 23 15 7 7 7 7 6 6 5 5 6
Wind_Direction
354 11 20 25 34 39 59 192 196 191 171 172 189 205 224 222 222 224 223 219 218 216 217 227 222 212 219 226 221 220 226 233 215 249 279 266 246 245 245 242 242 242 241
12 15 21 29 30 27 20 3 212 194 188 188 176 184 192 214 219 224 228 226 223 221 222 226 228 219 224 229 223 213 218 223 189 194 242 294 296 246 239 237 236 239 239
21 15 18 22 24 22 10 6 325 201 195 179 151 124 107 347 246 230 232 230 228 227 227 228 229 225 222 230 229 221 219 230 213 201 200 229 250 295 259 233 233 232 229
28 27 23 21 19 11 11 21 30 64 165 166 172 190 209 232 237 230 234 232 227 229 230 232 231 230 228 231 232 226 223 225 231 214 221 229 215 238 289 259 241 234 230
40 37 29 25 21 16 22 24 39 47 63 161 190 203 231 246 259 256 252 247 235 232 233 233 233 234 233 233 234 230 224 224 231 224 211 230 239 233 247 269 256 240 229
47 38 30 32 25 21 24 25 35 35 33 66 199 221 243 259 273 271 267 264 253 243 237 236 236 237 237 237 236 235 230 229 230 231 223 213 213 216 226 248 258 258 238
74 34 32 28 21 17 14 15 25 21 15 18 318 256 254 259 262 270 271 273 271 261 250 238 239 240 240 241 239 237 236 234 232 233 234 232 232 223 223 241 256 259 251
155 58 42 32 13 8 7 7 10 2 355 352 332 304 279 267 266 268 268 269 269 268 264 247 244 244 244 244 241 240 240 239 236 237 235 237 236 231 229 234 246 264 265
196 177 35 25 6 358 355 350 348 341 337 336 329 324 315 294 286 287 278 274 273 277 275 265 257 253 250 248 245 245 243 241 239 239 237 238 239 235 234 233 230 241 264
218 247 9 353 341 335 330 336 335 324 321 329 328 322 317 309 299 298 295 290 286 282 282 278 268 263 258 254 250 250 250 246 244 241 240 239 240 238 234 233 232 231 242
218 247 294 319 325 329 330 329 331 329 326 327 325 324 318 315 312 302 294 291 289 289 284 280 276 272 267 261 256 253 251 250 250 245 242 242 238 239 236 233 233 233 234
185 220 303 328 332 329 325 324 322 322 317 318 319 316 312 313 311 303 297 294 290 288 284 282 278 275 271 265 259 261 258 253 252 249 246 246 242 239 238 235 234 234 231
117 25 341 326 317 314 317 318 316 314 313 317 318 315 312 310 306 301 298 296 291 289 286 282 278 276 273 270 265 262 261 257 255 252 248 248 243 244 240 236 237 236 236
92 344 319 308 305 307 310 312 311 311 313 315 313 308 305 302 298 296 295 293 289 288 287 283 279 275 273 271 269 266 264 261 258 254 251 249 244 244 242 240 238 236 236
352 325 310 304 307 312 313 313 310 311 312 313 309 301 297 295 294 294 292 291 288 286 283 284 283 279 276 273 270 265 262 260 260 256 251 249 249 248 247 244 239 233 236
315 313 310 310 311 311 311 313 310 308 310 306 299 297 297 297 295 294 293 293 291 288 285 284 284 284 284 288 290 287 272 262 260 261 256 252 257 259 259 256 249 236 231
302 306 307 305 305 305 306 304 300 304 305 299 297 297 297 296 295 296 296 295 294 290 289 286 284 285 287 293 294 292 288 275 268 263 263 262 258 261 251 257 259 256 248
303 307 306 305 305 304 303 298 299 302 301 298 296 295 296 296 297 297 295 295 293 292 291 290 287 287 290 295 296 296 292 281 273 266 263 262 260 255 255 248 248 250 254
294 292 293 293 299 301 301 305 305 303 300 298 296 296 297 298 300 299 297 297 297 296 292 290 289 289 293 297 298 297 287 281 275 269 263 262 260 264 267 259 251 251 249
311 308 309 306 304 302 306 305 301 302 300 298 297 296 295 296 298 298 298 298 296 296 296 293 290 288 290 294 298 298 289 284 281 274 265 269 270 270 269 260 253 255 251
314 314 311 303 297 299 304 299 299 297 294 295 296 296 294 293 295 296 296 297 298 297 296 295 293 289 289 294 296 297 294 283 283 282 278 269 277 278 274 269 257 257 254
315 313 307 301 299 299 299 297 296 294 295 296 297 297 296 295 300 298 299 298 298 299 299 299 298 293 289 292 294 296 296 295 290 286 282 275 279 278 275 272 266 267 265
298 295 293 296 298 295 291 292 295 298 300 300 299 299 299 296 293 295 299 302 299 298 300 300 299 298 292 290 296 298 298 297 294 284 284 285 286 286 280 275 275 276 265
293 292 296 297 299 297 291 285 292 297 299 301 302 302 303 304 299 293 294 297 300 300 299 299 299 299 298 295 293 290 293 294 293 289 286 288 287 283 279 274 273 266 257
287 287 288 290 292 294 293 291 292 297 299 300 301 302 301 301 304 300 295 297 292 293 298 299 299 302 302 300 303 304 300 296 289 292 280 274 274 264 259 253 251 246 251
286 290 289 288 291 294 295 294 292 291 296 303 304 304 304 303 303 305 304 299 299 301 301 301 301 301 300 304 307 308 307 307 306 304 291 285 276 267 258 253 251 242 239
Height
1512 1511 1509 1507 1506 1505 1505 1505 1505 1506 1507 1509 1510 1512 1514 1516 1517 1519 1520 1521 1522 1523 1523 1524 1524 1524 1524 1524 1525 1525 1524 1523 1524 1522 1517 1515 1514 1512 1512 1513 1513 1513 1514
1513 1512 1511 1509 1508 1507 1506 1506 1505 1506 1506 1507 1508 1509 1511 1512 1513 1514 1515 1516 1516 1516 1516 1516 1516 1516 1515 1515 1516 1516 1515 1514 1516 1514 1511 1505 1501 1499 1500 1500 1500 1501 1502
1514 1513 1512 1512 1510 1509 1508 1507 1507 1506 1506 1506 1506 1507 1507 1508 1509 1509 1509 1510 1510 1509 1509 1508 1508 1507 1507 1506 1506 1506 1505 1504 1505 1505 1506 1501 1492 1491 1488 1488 1489 1490 1491
1516 1515 1514 1514 1513 1512 1511 1509 1508 1507 1506 1506 1506 1506 1506 1505 1505 1505 1504 1504 1504 1503 1502 1501 1500 1499 1498 1496 1496 1496 1495 1495 1493 1493 1493 1492 1490 1488 1479 1477 1478 1478 1479
1516 1516 1516 1516 1515 1514 1513 1511 1510 1509 1508 1507 1506 1505 1504 1504 1503 1501 1500 1499 1498 1497 1495 1494 1492 1490 1489 1487 1487 1486 1485 1484 1483 1482 1481 1480 1479 1478 1475 1466 1465 1467 1466
1517 1517 1517 1517 1516 1515 1514 1513 1511 1510 1509 1507 1506 1505 1503 1502 1500 1498 1496 1495 1493 1491 1489 1487 1485 1483 1481 1479 1477 1476 1475 1473 1472 1471 1470 1469 1467 1465 1464 1459 1454 1453 1452
1516 1517 1517 1517 1516 1516 1515 1513 1512 1510 1509 1507 1505 1503 1501 1499 1497 1494 1492 1490 1487 1485 1483 1481 1478 1475 1473 1471 1469 1467 1465 1463 1461 1460 1458 1457 1455 1455 1454 1451 1446 1442 1440
1516 1516 1516 1516 1516 1515 1514 1513 1511 1510 1508 1505 1503 1501 1498 1496 1493 1491 1488 1485 1482 1479 1477 1474 1471 1468 1466 1463 1460 1457 1455 1453 1451 1449 1447 1445 1443 1444 1442 1441 1440 1434 1429
1514 1515 1516 1516 1515 1514 1513 1512 1510 1508 1505 1503 1500 1497 1495 1492 1489 1486 1483 1480 1477 1473 1470 1467 1464 1461 1458 1455 1452 1448 1445 1443 1440 1438 1436 1434 1432 1432 1431 1430 1430 1429 1420
1513 1514 1514 1514 1514 1513 1512 1510 1508 1505 1502 1499 1496 1493 1490 1487 1484 1481 1478 1474 1471 1467 1464 1461 1457 1454 1450 1447 1443 1439 1436 1432 1429 1427 1424 1422 1421 1420 1419 1418 1418 1417 1413
1511 1512 1512 1512 1512 1511 1509 1507 1504 1501 1498 1495 1492 1489 1486 1483 1479 1476 1473 1469 1465 1461 1457 1453 1449 1445 1442 1438 1433 1429 1426 1422 1418 1416 1413 1410 1410 1408 1406 1406 1405 1404 1403
1509 1510 1510 1510 1510 1508 1506 1504 1501 1497 1494 1491 1488 1485 1481 1478 1475 1471 1467 1463 1459 1454 1450 1445 1441 1436 1432 1428 1424 1419 1415 1411 1407 1404 1402 1399 1398 1395 1395 1394 1392 1391 1390
1507 1508 1508 1508 1507 1505 1502 1500 1496 1493 1490 1487 1483 1480 1477 1473 1469 1465 1460 1456 1451 1446 1441 1436 1431 1426 1422 1418 1413 1408 1404 1400 1396 1393 1390 1388 1387 1383 1382 1381 1379 1379 1379
1506 1506 1506 1505 1503 1501 1498 1495 1492 1489 1485 1482 1479 1475 1471 1467 1462 1458 1453 1448 1443 1437 1432 1427 1421 1416 1411 1407 1402 1397 1392 1388 1384 1382 1379 1377 1375 1372 1371 1369 1367 1367 1367
1504 1504 1503 1502 1499 1497 1494 1491 1488 1484 1481 1477 1474 1470 1465 1461 1456 1450 1445 1439 1434 1428 1422 1416 1411 1406 1401 1396 1391 1386 1381 1376 1373 1370 1368 1366 1364 1361 1360 1357 1355 1356 1355
1502 1501 1500 1498 1495 1492 1489 1486 1483 1480 1476 1472 1468 1463 1458 1453 1448 1442 1436 1430 1424 1418 1412 1406 1400 1394 1390 1385 1381 1376 1370 1366 1362 1359 1356 1355 1353 1351 1349 1347 1346 1345 1343
1500 1498 1496 1494 1491 1488 1485 1481 1478 1475 1471 1466 1462 1457 1451 1445 1439 1433 1427 1420 1414 1407 1401 1395 1389 1383 1378 1375 1370 1366 1362 1357 1353 1349 1346 1344 1342 1340 1338 1336 1335 1335 1334
1496 1494 1492 1489 1487 1484 1481 1477 1474 1470 1465 1460 1455 1449 1443 1437 1430 1424 1418 1411 1404 1397 1391 1384 1379 1373 1368 1364 1359 1355 1351 1346 1343 1340 1337 1334 1331 1330 1328 1325 1323 1322 1322
1493 1491 1488 1486 1483 1480 1476 1472 1468 1464 1459 1453 1447 1442 1436 1429 1422 1415 1408 1402 1395 1387 1381 1375 1369 1363 1358 1354 1350 1346 1341 1336 1333 1330 1328 1325 1321 1320 1318 1316 1313 1311 1310
1489 1487 1484 1482 1479 1475 1471 1467 1462 1457 1452 1446 1440 1434 1428 1421 1414 1407 1400 1393 1386 1378 1372 1365 1361 1355 1349 1345 1341 1337 1333 1328 1324 1321 1318 1316 1313 1311 1309 1307 1304 1302 1301
1485 1483 1480 1478 1474 1471 1466 1461 1456 1451 1445 1438 1432 1426 1420 1414 1406 1398 1392 1385 1377 1370 1363 1357 1351 1346 1341 1336 1333 1330 1326 1321 1317 1313 1310 1307 1305 1303 1301 1299 1297 1295 1294
1481 1479 1476 1473 1470 1466 1460 1454 1449 1444 1437 1431 1424 1418 1412 1405 1398 1391 1383 1377 1370 1362 1354 1348 1341 1337 1334 1330 1325 1322 1319 1315 1311 1306 1303 1299 1297 1295 1293 1291 1289 1288 1287
1477 1474 1471 1467 1464 1460 1455 1449 1443 1437 1430 1423 1416 1409 1403 1396 1390 1383 1375 1368 1362 1355 1348 1341 1335 1329 1326 1322 1319 1315 1311 1307 1303 1299 1295 1292 1290 1287 1285 1283 1282 1281 1280
1473 1470 1466 1461 1457 1453 1449 1443 1436 1430 1422 1415 1408 1401 1394 1387 1381 1375 1369 1362 1355 1348 1342 1336 1329 1324 1319 1315 1311 1307 1303 1299 1295 1291 1287 1285 1282 1280 1277 1276 1275 1274 1273
1468 1465 1461 1456 1451 1446 1441 1436 1430 1423 1415 1407 1401 1394 1387 1380 1372 1366 1361 1355 1349 1345 1338 1331 1326 1319 1313 1309 1305 1301 1296 1292 1288 1284 1280 1277 1274 1272 1270 1269 1268 1267 1266
1463 1459 1455 1450 1444 1439 1433 1428 1422 1416 1408 1400 1393 1386 1380 1373 1366 1358 1351 1347 1343 1337 1332 1326 1321 1314 1309 1303 1298 1294 1289 1285 1281 1277 1273 1271 1268 1266 1264 1263 1262 1261 1260